TITAN 3C TRANSTAGE DEB, 3373

Orbit data source: Space-Track

TITAN 3C TRANSTAGE DEB, 3373 is space debris in LEO originally from a launch on Fri, 15 Oct 1965 UTC launched from the Air Force Eastern Test Range (AFETR). Debris objects in space refer to the collection of defunct objects orbiting the Earth. Examples of debris include non-operational satellites, rocket bodies, and fragments generated from explosions, collisions, or faulty payload assembly.

Loading next visibility...
Identifier
3373, 1965-082ML
Orbit
LEO
Last TLE update
13 hours ago
Origin
Manufacturer
Unknown
Mission
Spacecraft
Bus & Motor
Unknown
Mass
Unknown
Launch date (UTC)
1965-10-15 (60 years ago)
Launch vehicle
Unknown
Launch site
Air Force Eastern Test Range (AFETR)
Object type
Payload
Rocket body
Debris
Shape & HBR
Unknown
Radar Cross Section
Small (<0.1 m²)

Expand to show TLE details & history

TLE from 13 hours ago
0 TITAN 3C TRANSTAGE DEB
1 03373U 65082ML  25141.50377959  .00000977  00000-0  20558-3 0  9991
2 03373  30.9768 282.5499 0158859   7.1942 353.0915 14.48162607993869
Epoch: 2025-05-21T12:05Z
TLE epoch observation values (Epoch: 2025-05-21T12:05:26.556Z)
Latitude
0.00001°
Longitude
-138.19748°
Altitude
618.134 km
Speed
7.611 km/s
True Right ascension
18h 50m 11s
True Declination
0° 00' 00"
Sunlit
Object was in full shadow at epoch
Visualization orbit readout
Latitude
-12.18737°
Longitude
59.71811°
Altitude
842.92 km
Speed
7.375 km/s
Apparent Right ascension
05h 32m 54s
Apparent Declination
-60° 01' 21"
Sunlit
Object is in daylight
Visualization observer readout
Local Sidereal Time
09:35:41
Azimuth
207.947° SW
Elevation
-21.608°
Doppler factor
1
Orbital elements
Apogee altitude
848.401 km
Perigee altitude
622.391 km
Semi-major axis
7,113.533 km
Eccentricity
0.01589
Inclination
30.9768°
RAAN
282.5499°
Arg. of periapsis
7.1942°
True anomaly
Unknown
Mean anomaly
353.0915°
Eccentric anomaly
Unknown
Mean motion
3.61755 °/min
Orbital period
99.51 mins
BSTAR
0.00020558
Loading maneuver chart data...
Loading SW <> Apogee altitude chart data...

TITAN 3C TRANSTAGE DEB Visibility forecast

Observer location: undefined°, undefined°

Span
Click to sort rows by Start time (UTC) header in descending order
Start Az.
Max El. time (UTC)
Max El. Az.
Max El.
End time (UTC)
End Az.
5 mins2025-05-22 13:09:33.731Z194.073° SSW2025-05-22 13:11:33.731Z165.67° S16.583°2025-05-22 13:14:33.731Z124.361° SE
7 mins2025-05-22 14:53:33.731Z225.451° WSW2025-05-22 14:56:33.731Z175.81° S25.392°2025-05-22 15:00:33.731Z119.21° SE
7 mins2025-05-22 16:38:33.731Z234.895° WSW2025-05-22 16:41:33.731Z188.312° SSW23.375°2025-05-22 16:45:33.731Z136.771° SSE
|